Orbital Elements at Epoch 2459200.5 (2020-Dec-17.0) TDB
Reference: JPL 25 (heliocentric ecliptic J2000)
Element | Value | Uncertainty (1-sigma) | Units |
e | .1398153582820626 | 4.3558e-08 | |
a | 3.206312830512425 | 2.0803e-08 | au |
q | 2.758021053349956 | 1.4913e-07 | au |
i | 2.027896000659768 | 4.5599e-06 | deg |
node | 41.62358113107483 | 0.00012463 | deg |
peri | 216.3245948237188 | 0.00012609 | deg |
M | 348.9169611752636 | 2.2373e-05 | deg |
tp | 2459265.060014623774 (2021-Feb-19.56001462) | 0.0001306 | TDB |
period | 2097.042664209133 5.74 | 2.0408e-05 5.587e-08 | d yr |
n | .1716703270487672 | 1.6707e-09 | deg/d |
Q | 3.654604607674894 | 2.3711e-08 | au |
|
| | Orbit Determination Parameters
Additional Information
|